EA4LT-13 Weather Reports


Display with metric or nautical units.
time (UTC)temp
F
wind
direction
speed
MPH
gust
MPH
rain 1hr
in
rain 24hr
in
rain mn
in
humidity
%
barometer
mb
20260905022857 82 292 0.0 2.0 0.00 0.00 0.00 40 1017.3
20260905021356 81 292 0.0 2.0 0.00 0.00 0.00 42 1017.0
20260905015856 81 270 0.0 2.0 0.00 0.00 0.00 43 1017.2
20260905014355 83 90 0.0 1.0 0.00 0.00 0.00 40 1017.2
20260905012856 83 315 0.0 1.0 0.00 0.00 0.00 40 1017.3
20260905011356 83 315 0.0 1.0 0.00 0.00 0.00 41 1017.4
20260905005856 83 202 0.0 1.0 0.00 0.00 0.00 41 1017.7
20260905004356 82 180 0.0 1.0 0.00 0.00 0.00 45 1017.7
20260905002855 84 135 0.0 3.0 0.00 0.00 0.00 42 1017.9
20260905001355 83 248 0.0 0.0 0.00 0.00 0.00 43 1018.2
20260904235856 83 292 0.0 1.0 0.00 0.00 0.00 43 1018.8
20260904234354 84 292 0.0 2.0 0.00 0.00 0.00 42 1019.3
20260904232855 84 292 1.0 3.0 0.00 0.00 0.00 41 1019.1
20260904231354 85 292 3.0 9.0 0.00 0.00 0.00 41 1019.1
20260904225855 85 292 6.0 11.0 0.00 0.00 0.00 41 1019.1
20260904224355 84 315 6.0 9.0 0.00 0.00 0.00 42 1018.9
20260904222855 82 135 0.0 6.0 0.00 0.00 0.00 44 1019.1
20260904221354 83 270 0.0 4.0 0.00 0.00 0.00 44 1019.1
20260904215854 84 315 0.0 4.0 0.00 0.00 0.00 43 1019.1
20260904214354 84 315 3.0 8.0 0.00 0.00 0.00 43 1018.6
20260904212854 82 292 2.0 3.0 0.00 0.00 0.00 46 1018.8
20260904211355 83 338 3.0 6.0 0.00 0.00 0.00 43 1018.3
20260904205854 83 315 5.0 8.0 0.00 0.00 0.00 45 1018.6
20260904204355 84 315 0.0 4.0 0.00 0.00 0.00 40 1018.5
20260904202856 84 292 1.0 9.0 0.00 0.00 0.00 40 1018.4
20260904201354 85 315 7.0 11.0 0.00 0.00 0.00 38 1018.0
20260904200245 85 315 3.0 4.0 0.00 0.00 0.00 38 1018.6
20260904194746 85 158 1.0 13.0 0.00 0.00 0.00 38 1018.7
20260904193246 85 292 4.0 6.0 0.00 0.00 0.00 41 1018.9
20260904191747 85 270 2.0 10.0 0.00 0.00 0.00 39 1018.7
20260904190247 85 270 4.0 9.0 0.00 0.00 0.00 38 1018.7
20260904184745 86 270 3.0 6.0 0.00 0.00 0.00 36 1018.6
20260904183246 86 315 3.0 8.0 0.00 0.00 0.00 36 1017.9
20260904181746 87 292 3.0 6.0 0.00 0.00 0.00 36 1018.1
20260904180245 87 292 3.0 6.0 0.00 0.00 0.00 36 1018.1
20260904174745 88 292 0.0 6.0 0.00 0.00 0.00 34 1017.9
20260904173245 89 315 3.0 4.0 0.00 0.00 0.00 33 1018.3
20260904171744 89 338 2.0 4.0 0.00 0.00 0.00 32 1018.2
20260904170246 89 292 2.0 6.0 0.00 0.00 0.00 32 1018.4
20260904164744 89 338 4.0 8.0 0.00 0.00 0.00 31 1018.6
20260904163246 90 315 4.0 8.0 0.00 0.00 0.00 32 1018.6
20260904161745 91 292 1.0 8.0 0.00 0.00 0.00 32 1018.5
20260904160244 91 292 5.0 9.0 0.00 0.00 0.00 33 1019.0
20260904154744 92 315 2.0 8.0 0.00 0.00 0.00 29 1019.0
20260904153245 92 292 3.0 6.0 0.00 0.00 0.00 30 1018.8
20260904151744 91 338 1.0 3.0 0.00 0.00 0.00 30 1018.8
20260904150244 91 112 1.0 4.0 0.00 0.00 0.00 30 1018.6
20260904144744 92 292 0.0 6.0 0.00 0.00 0.00 30 1018.8
20260904143245 92 45 1.0 6.0 0.00 0.00 0.00 31 1019.1
20260904141745 93 68 2.0 6.0 0.00 0.00 0.00 31 1019.0
20260904140245 93 112 2.0 6.0 0.00 0.00 0.00 31 1019.3
20260904134744 93 68 2.0 6.0 0.00 0.00 0.00 31 1019.5
20260904133244 93 22 1.0 6.0 0.00 0.00 0.00 32 1019.4
20260904131744 92 338 1.0 4.0 0.00 0.00 0.00 34 1019.7
20260904130244 92 315 1.0 6.0 0.00 0.00 0.00 35 1019.7
20260904124745 91 315 3.0 6.0 0.00 0.00 0.00 35 1019.9
20260904123244 93 202 1.0 4.0 0.00 0.00 0.00 34 1020.2
20260904121744 92 270 0.0 2.0 0.00 0.00 0.00 37 1020.0
20260904120244 89 158 0.0 3.0 0.00 0.00 0.00 39 1020.4
20260904114744 88 315 0.0 1.0 0.00 0.00 0.00 40 1020.5
20260904113244 87 292 0.0 0.0 0.00 0.00 0.00 41 1020.5
20260904111743 85 292 0.0 2.0 0.00 0.00 0.00 43 1020.8
20260904110243 85 315 1.0 3.0 0.00 0.00 0.00 44 1020.9
20260904104743 86 338 0.0 2.0 0.00 0.00 0.00 44 1020.9
20260904103243 84 292 1.0 3.0 0.00 0.00 0.00 44 1020.9
20260904101743 84 315 1.0 4.0 0.00 0.00 0.00 45 1020.7
20260904100243 83 315 2.0 6.0 0.00 0.00 0.00 45 1020.7
20260904094743 83 315 1.0 6.0 0.00 0.00 0.00 43 1020.8
20260904093244 84 292 0.0 6.0 0.00 0.00 0.00 43 1020.6
20260904091744 84 338 0.0 6.0 0.00 0.00 0.00 43 1020.6
20260904090244 82 315 3.0 4.0 0.00 0.00 0.00 41 1021.0
20260904084743 82 180 1.0 4.0 0.00 0.00 0.00 40 1020.7
20260904083243 80 158 3.0 4.0 0.00 0.00 0.00 40 1020.7
20260904081743 80 202 2.0 8.0 0.00 0.00 0.00 39 1020.6
20260904080242 84 225 0.0 1.0 0.00 0.00 0.00 38 1020.1
20260904074742 84 315 0.0 0.0 0.00 0.00 0.00 36 1020.0
20260904073242 83 270 0.0 1.0 0.00 0.00 0.00 37 1019.8
20260904071743 80 292 1.0 3.0 0.00 0.00 0.00 41 1019.8
20260904070242 79 292 1.0 4.0 0.00 0.00 0.00 42 1019.6
20260904064742 79 292 2.0 4.0 0.00 0.00 0.00 40 1019.5
20260904063242 78 292 3.0 6.0 0.00 0.00 0.00 39 1019.6
20260904061742 78 292 3.0 6.0 0.00 0.00 0.00 39 1019.1
20260904060242 78 292 2.0 4.0 0.00 0.00 0.00 37 1019.3
20260904054742 79 315 3.0 3.0 0.00 0.00 0.00 36 1019.2
20260904053242 80 292 0.0 2.0 0.00 0.00 0.00 35 1019.3
20260904051743 81 292 1.0 4.0 0.00 0.00 0.00 34 1019.0
20260904050242 80 292 3.0 4.0 0.00 0.00 0.00 35 1018.8
20260904044741 83 225 0.0 3.0 0.00 0.00 0.00 31 1018.7
20260904043242 83 225 2.0 4.0 0.00 0.00 0.00 31 1018.9
20260904041743 83 180 1.0 2.0 0.00 0.00 0.00 31 1018.5
20260904040241 80 158 0.0 1.0 0.00 0.00 0.00 34 1018.7
20260904034741 80 158 0.0 0.0 0.00 0.00 0.00 34 1018.7
20260904033242 82 158 0.0 2.0 0.00 0.00 0.00 32 1018.7
20260904031741 83 180 1.0 3.0 0.00 0.00 0.00 31 1018.9
20260904030242 83 158 0.0 2.0 0.00 0.00 0.00 32 1019.1
20260904024742 82 135 0.0 1.0 0.00 0.00 0.00 32 1018.9